Regional Weather Roundup
Issued by NWS

Home | Current Version | Previous Version | Text Only | Print | Product List | Glossary On
Versions: 1 2 3 4 5 6 7 8 9 10 11 12 13 14 15 16 17 18 19 20 21 22 23 24 25 26 27 28 29 30 31 32 33 34 35 36 37 38 39 40 41 42 43 44 45 46 47 48 49 50
000
ASUS45 KSLC 291610
RWRUT

UTAH REGIONAL WEATHER ROUNDUP
NATIONAL WEATHER SERVICE SALT LAKE CITY UT
1000 AM MDT THU JUN 29 2017

UTZ001>011-023>025-291700-

NORTHERN UTAH

CITY           SKY/WX    TMP DP  RH WIND       PRES   REMARKS
BRIGHAM CITY   SUNNY     72  19  13 CALM      30.06R
DUGWAY         MOSUNNY   77  28  17 W5        30.05R
HILL AFB       SUNNY     71  34  26 NE5       30.07R
LOGAN          SUNNY     72  36  26 VRB3      30.05R
OGDEN          SUNNY     74  30  19 VRB3      30.05R
SALT LAKE CITY SUNNY     78  33  19 NW7       30.04R
TOOELE VALLEY  SUNNY     77  36  22 SE3       30.06R
WENDOVER       SUNNY     74  25  16 E8        30.06R
HEBER CITY     SUNNY     64  37  36 CALM      30.10S
WEST JORDAN    SUNNY     74  42  31 N6        30.07S

$$

UTZ011>015-024>027-291700-

CENTRAL/NORTHEAST UTAH

CITY           SKY/WX    TMP DP  RH WIND       PRES   REMARKS
PROVO AIRPORT  SUNNY     72  43  35 W5        30.07R
MOAB/CANYONLAN SUNNY     85  30  13 W9        29.98R
DELTA          SUNNY     73  39  29 CALM      30.07R
PRICE          SUNNY     75  31  19 SW9       30.10R
RICHFIELD      SUNNY     73  34  23 NE2       30.10S
ROOSEVELT      SUNNY     73  36  25 CALM      30.07S
VERNAL         SUNNY     74  38  27 VRB7      30.05S

$$

UTZ013>016-019>022-027-291700-

SOUTHERN UTAH

CITY           SKY/WX    TMP DP  RH WIND       PRES   REMARKS
BRYCE CANYON   SUNNY     71  26  18 CALM      30.24S
CEDAR CITY     SUNNY     73  28  18 VRB3      30.10S
MILFORD        SUNNY     78  29  16 N6        30.07R
ST GEORGE      SUNNY     84  24  11 CALM      29.93S
HANKSVILLE     SUNNY     82  30  15 NW7       30.03R
BLANDING       SUNNY     77  20  11 SE5       30.17S

$$

REGIONAL REPORTS     COLORADO/ARIZONA

CITY           SKY/WX    TMP DP  RH WIND       PRES   REMARKS
CRAIG, CO      MOSUNNY   68  37  32 N5        30.12S
GRAND JUNCTION SUNNY     79  34  19 CALM      30.00S
RIFLE, CO      SUNNY     73  31  21 VRB3      30.06F
MONTROSE, CO   SUNNY     77  27  15 VRB6      30.07F
CORTEZ, CO     SUNNY     76  19  11 VRB3      30.11S
COLORADO CITY    N/A     84  25  11 NE5       30.09S
PAGE, AZ       SUNNY     84  16   8 NW3       30.01S
GRAND CANYON   SUNNY     76  20  12 SW9       30.22R
KINGMAN, AZ    SUNNY     87  26  11 W7        29.97R
FLAGSTAFF, AZ  SUNNY     73  18  12 SW9       30.25R

$$

REGIONAL REPORTS    NEVADA/IDAHO/WYOMING

CITY           SKY/WX    TMP DP  RH WIND       PRES   REMARKS
LAS VEGAS, NV  SUNNY     92  21   7 VRB3      29.86S
ELY, NY        SUNNY     71  30  21 VRB3      30.17R
ELKO, NV       SUNNY     68  22  17 CALM      30.12R
POCATELLO, ID  MOSUNNY   63  48  58 W9        30.08R
BURLEY, ID     SUNNY     65  40  39 W12       30.06R
FORT BRIDGER,    N/A     67  17  14 NW21G29   30.18R
EVANSTON, WY   SUNNY     63  24  22 W13G23    30.17R
ROCK SPRINGS,  SUNNY     62  36  37 VRB6      30.12R
KEMMERER, WY     N/A     61  21  21 W18       30.15S

$$



USA.gov is the U.S. government's official web portal to all federal, state and local government web resources and services.